When you browse on this site, cookies collect data to enhance your experience and personalize the content and advertising you see.
Visit our Privacy Policy to learn more. By continuing to use the site, you agree to this use of cookies and data.
  • In United Kingdom
  • List of Countries
  • For 7 days
  • Water Temperature
  • Weather Map
  • Weather Widgets
  • user-avatar
    Login

    Hourly Weather Yulara

    Today, 16 September, Monday

    Time Temperature Precipitation Wind Pressure Humidity
    00:00 +19°C° 0 mm 2 mps 719 mmHg 32%
    01:00 +18°C° 0 mm 2 mps 719 mmHg 30%
    02:00 +16°C° 0 mm 1 mps 718 mmHg 29%
    03:00 +15°C° 0 mm 1 mps 718 mmHg 35%
    04:00 +14°C° 0 mm 1 mps 718 mmHg 37%
    05:00 +14°C° 0 mm 1 mps 718 mmHg 39%
    06:00 +14°C° 0 mm 1 mps 719 mmHg 41%
    07:00 +20°C° 0 mm 1 mps 719 mmHg 31%
    08:00 +24°C° 0 mm 1 mps 720 mmHg 20%
    09:00 +27°C° 0 mm 0 mps 721 mmHg 9%
    10:00 +31°C° 0 mm 1 mps 721 mmHg 9%
    11:00 +34°C° 0 mm 2 mps 721 mmHg 8%
    12:00 +35°C° 0 mm 2 mps 720 mmHg 7%
    13:00 +36°C° 0 mm 2 mps 720 mmHg 7%
    14:00 +36°C° 0 mm 2 mps 719 mmHg 6%
    15:00 +36°C° 0 mm 2 mps 719 mmHg 6%
    16:00 +32°C° 0 mm 2 mps 719 mmHg 8%
    17:00 +30°C° 0 mm 2 mps 719 mmHg 9%
    18:00 +27°C° 0 mm 2 mps 718 mmHg 11%
    19:00 +26°C° 0 mm 4 mps 719 mmHg 17%
    20:00 +24°C° 0 mm 6 mps 720 mmHg 24%
    21:00 +22°C° 0 mm 7 mps 720 mmHg 31%
    22:00 +21°C° 0 mm 7 mps 720 mmHg 35%
    23:00 +20°C° 0 mm 6 mps 720 mmHg 39%

    Tomorrow, 17 September, Tuesday

    Time Temperature Precipitation Wind Pressure Humidity
    00:00 +19°C° 0 mm 6 mps 721 mmHg 44%
    01:00 +17°C° 0 mm 6 mps 720 mmHg 47%
    02:00 +17°C° 0 mm 5 mps 720 mmHg 50%
    03:00 +16°C° 0 mm 5 mps 720 mmHg 54%
    04:00 +15°C° 0 mm 5 mps 720 mmHg 56%
    05:00 +14°C° 0 mm 5 mps 720 mmHg 58%
    06:00 +13°C° 0 mm 5 mps 720 mmHg 60%
    07:00 +15°C° 0 mm 6 mps 721 mmHg 53%
    08:00 +18°C° 0 mm 7 mps 721 mmHg 46%
    09:00 +21°C° 0 mm 8 mps 722 mmHg 38%
    10:00 +24°C° 0 mm 8 mps 722 mmHg 32%
    11:00 +27°C° 0 mm 7 mps 721 mmHg 26%
    12:00 +30°C° 0 mm 7 mps 721 mmHg 19%
    13:00 +32°C° 0 mm 6 mps 720 mmHg 17%
    14:00 +33°C° 0 mm 5 mps 720 mmHg 14%
    15:00 +35°C° 0 mm 3 mps 719 mmHg 12%
    16:00 +33°C° 0 mm 3 mps 719 mmHg 13%
    17:00 +30°C° 0 mm 3 mps 719 mmHg 15%
    18:00 +28°C° 0 mm 3 mps 719 mmHg 16%
    19:00 +26°C° 0 mm 4 mps 719 mmHg 19%
    20:00 +25°C° 0 mm 5 mps 720 mmHg 22%
    21:00 +22°C° 0 mm 5 mps 720 mmHg 25%
    22:00 +21°C° 0 mm 6 mps 720 mmHg 28%
    23:00 +21°C° 0 mm 6 mps 721 mmHg 32%

    Day after tomorrow, 18 September, Wednesday

    Time Temperature Precipitation Wind Pressure Humidity
    00:00 +20°C° 0 mm 6 mps 721 mmHg 35%
    01:00 +19°C° 0 mm 6 mps 720 mmHg 37%
    02:00 +17°C° 0 mm 6 mps 720 mmHg 39%
    03:00 +17°C° 0 mm 6 mps 720 mmHg 41%
    04:00 +16°C° 0 mm 5 mps 720 mmHg 45%
    05:00 +15°C° 0 mm 5 mps 720 mmHg 48%
    06:00 +14°C° 0 mm 4 mps 721 mmHg 51%
    07:00 +17°C° 0 mm 5 mps 721 mmHg 44%
    08:00 +21°C° 0 mm 5 mps 721 mmHg 36%
    09:00 +24°C° 0 mm 6 mps 722 mmHg 29%
    10:00 +28°C° 0 mm 5 mps 721 mmHg 23%
    11:00 +32°C° 0 mm 5 mps 721 mmHg 17%
    12:00 +35°C° 0 mm 4 mps 721 mmHg 12%
    13:00 +35°C° 0 mm 4 mps 720 mmHg 10%
    14:00 +36°C° 0 mm 4 mps 719 mmHg 9%
    15:00 +37°C° 0 mm 4 mps 718 mmHg 7%
    16:00 +34°C° 0 mm 3 mps 718 mmHg 9%
    17:00 +31°C° 0 mm 3 mps 718 mmHg 10%
    18:00 +29°C° 0 mm 3 mps 717 mmHg 11%
    19:00 +27°C° 0 mm 3 mps 718 mmHg 12%
    20:00 +25°C° 0 mm 3 mps 718 mmHg 13%
    21:00 +23°C° 0 mm 2 mps 718 mmHg 14%
    22:00 +22°C° 0 mm 3 mps 718 mmHg 14%
    23:00 +21°C° 0 mm 3 mps 718 mmHg 15%

    19 September, Thursday

    Time Temperature Precipitation Wind Pressure Humidity
    00:00 +21°C° 0 mm 4 mps 718 mmHg 15%
    01:00 +20°C° 0 mm 4 mps 717 mmHg 18%
    02:00 +19°C° 0 mm 3 mps 717 mmHg 20%
    03:00 +18°C° 0 mm 3 mps 716 mmHg 22%
    04:00 +17°C° 0 mm 2 mps 716 mmHg 25%
    05:00 +16°C° 0 mm 2 mps 716 mmHg 28%
    06:00 +15°C° 0 mm 2 mps 716 mmHg 31%
    07:00 +20°C° 0 mm 4 mps 717 mmHg 25%
    08:00 +24°C° 0 mm 6 mps 717 mmHg 19%
    09:00 +31°C° 0 mm 9 mps 718 mmHg 14%
    10:00 +33°C° 0 mm 9 mps 717 mmHg 12%
    11:00 +36°C° 0 mm 10 mps 717 mmHg 10%
    12:00 +38°C° 0 mm 11 mps 716 mmHg 9%
    13:00 +39°C° 0 mm 12 mps 715 mmHg 9%
    14:00 +39°C° 0 mm 12 mps 714 mmHg 9%
    15:00 +39°C° 0 mm 12 mps 713 mmHg 9%
    16:00 +37°C° 0 mm 10 mps 713 mmHg 10%
    17:00 +35°C° 0 mm 8 mps 713 mmHg 11%
    18:00 +34°C° 0 mm 7 mps 713 mmHg 12%
    19:00 +32°C° 0 mm 6 mps 714 mmHg 13%
    20:00 +30°C° 0 mm 6 mps 714 mmHg 14%
    21:00 +29°C° 0 mm 6 mps 714 mmHg 15%
    22:00 +27°C° 0 mm 7 mps 714 mmHg 20%
    23:00 +24°C° 0 mm 8 mps 714 mmHg 26%

    20 September, Friday

    Time Temperature Precipitation Wind Pressure Humidity
    00:00 +22°C° 0 mm 9 mps 714 mmHg 31%
    01:00 +19°C° 0 mm 9 mps 714 mmHg 36%
    02:00 +18°C° 0 mm 9 mps 715 mmHg 41%
    03:00 +16°C° 0 mm 10 mps 715 mmHg 45%
    04:00 +15°C° 0 mm 9 mps 716 mmHg 54%
    05:00 +13°C° 0 mm 8 mps 717 mmHg 63%
    06:00 +12°C° 0 mm 8 mps 718 mmHg 72%
    07:00 +12°C° 0 mm 8 mps 718 mmHg 64%
    08:00 +13°C° 0 mm 8 mps 719 mmHg 56%
    09:00 +15°C° 0 mm 9 mps 720 mmHg 48%
    10:00 +17°C° 0 mm 8 mps 720 mmHg 43%
    11:00 +20°C° 0 mm 8 mps 719 mmHg 37%
    12:00 +22°C° 0 mm 7 mps 719 mmHg 32%
    13:00 +23°C° 0 mm 7 mps 719 mmHg 27%
    14:00 +23°C° 0 mm 6 mps 718 mmHg 22%
    15:00 +24°C° 0 mm 6 mps 717 mmHg 17%
    16:00 +22°C° 0 mm 5 mps 718 mmHg 18%
    17:00 +21°C° 0 mm 5 mps 718 mmHg 18%
    18:00 +20°C° 0 mm 5 mps 718 mmHg 19%
    19:00 +17°C° 0 mm 5 mps 719 mmHg 20%
    20:00 +15°C° 0 mm 6 mps 719 mmHg 22%
    21:00 +12°C° 0 mm 7 mps 720 mmHg 24%
    22:00 +11°C° 0 mm 7 mps 720 mmHg 26%
    23:00 +10°C° 0 mm 6 mps 720 mmHg 27%

    21 September, Saturday

    Time Temperature Precipitation Wind Pressure Humidity
    00:00 +9°C° 0 mm 6 mps 720 mmHg 29%
    01:00 +8°C° 0 mm 6 mps 720 mmHg 33%
    02:00 +7°C° 0 mm 6 mps 720 mmHg 38%
    03:00 +6°C° 0 mm 5 mps 720 mmHg 42%
    04:00 +6°C° 0 mm 5 mps 720 mmHg 47%
    05:00 +5°C° 0 mm 5 mps 721 mmHg 52%
    06:00 +5°C° 0 mm 5 mps 722 mmHg 56%
    07:00 +7°C° 0 mm 6 mps 722 mmHg 50%
    08:00 +9°C° 0 mm 8 mps 723 mmHg 43%
    09:00 +11°C° 0 mm 9 mps 723 mmHg 37%
    10:00 +13°C° 0 mm 9 mps 723 mmHg 33%
    11:00 +16°C° 0 mm 8 mps 722 mmHg 29%
    12:00 +18°C° 0 mm 8 mps 722 mmHg 24%
    13:00 +20°C° 0 mm 7 mps 721 mmHg 23%
    14:00 +21°C° 0 mm 6 mps 721 mmHg 21%
    15:00 +22°C° 0 mm 5 mps 720 mmHg 20%
    16:00 +21°C° 0 mm 5 mps 720 mmHg 21%
    17:00 +20°C° 0 mm 4 mps 720 mmHg 22%
    18:00 +19°C° 0 mm 4 mps 720 mmHg 24%
    19:00 +17°C° 0 mm 4 mps 721 mmHg 25%
    20:00 +15°C° 0 mm 5 mps 722 mmHg 27%
    21:00 +13°C° 0 mm 5 mps 722 mmHg 29%
    22:00 +12°C° 0 mm 5 mps 722 mmHg 30%
    23:00 +10°C° 0 mm 6 mps 722 mmHg 31%
    Show more